KJ4AJP Weather Reports


time (UTC)temp
C
wind
direction
speed
KPH
gust
KPH
rain 1hr
cm
rain 24hr
cm
rain mn
cm
humidity
%
barometer
mb
20260504040018 15 57 0.0 0.0 0.00 0.00 0.00 56 1014.1
20260504035515 15 51 1.6 1.6 0.00 0.00 0.00 55 1014.4
20260504035011 15 75 0.0 1.6 0.00 0.00 0.00 56 1014.2
20260504034509 14 69 0.0 0.0 0.00 0.00 0.00 55 1014.2
20260504034006 14 56 0.0 0.0 0.00 0.00 0.00 55 1014.2
20260504033504 14 62 0.0 0.0 0.00 0.00 0.00 56 1014.2
20260504033001 14 54 0.0 0.0 0.00 0.00 0.00 56 1014.2
20260504032457 14 61 0.0 0.0 0.00 0.00 0.00 55 1014.4
20260504031954 14 56 0.0 0.0 0.00 0.00 0.00 56 1014.4
20260504031451 14 64 0.0 0.0 0.00 0.00 0.00 57 1014.3
20260504030947 14 37 1.6 1.6 0.00 0.00 0.00 57 1014.2
20260504030445 14 67 0.0 0.0 0.00 0.00 0.00 57 1014.6
20260504025940 13 63 0.0 0.0 0.00 0.00 0.00 58 1014.3
20260504025437 13 68 0.0 0.0 0.00 0.00 0.00 57 1014.3
20260504024935 14 69 0.0 0.0 0.00 0.00 0.00 56 1014.3
20260504024432 14 66 0.0 0.0 0.00 0.00 0.00 57 1014.3
20260504023929 14 67 0.0 0.0 0.00 0.00 0.00 56 1014.4
20260504023425 14 67 0.0 0.0 0.00 0.00 0.00 56 1014.4
20260504022921 14 67 0.0 0.0 0.00 0.00 0.00 56 1014.5
20260504022417 14 67 0.0 0.0 0.00 0.00 0.00 56 1014.5
20260504021914 14 67 0.0 0.0 0.00 0.00 0.00 55 1014.3
20260504021411 15 67 0.0 0.0 0.00 0.00 0.00 54 1014.4
20260504020909 15 67 0.0 0.0 0.00 0.00 0.00 54 1014.3
20260504020405 15 67 0.0 0.0 0.00 0.00 0.00 54 1014.3
20260504015901 15 66 0.0 0.0 0.00 0.00 0.00 53 1014.2
20260504015357 15 66 0.0 0.0 0.00 0.00 0.00 51 1014.1
20260504014853 15 64 0.0 0.0 0.00 0.00 0.00 51 1014.1
20260504014349 15 64 0.0 0.0 0.00 0.00 0.00 50 1014.1
20260504013847 15 64 0.0 0.0 0.00 0.00 0.00 50 1014.0
20260504013345 16 64 0.0 0.0 0.00 0.00 0.00 49 1013.9
20260504012841 16 57 0.0 0.0 0.00 0.00 0.00 49 1014.0
20260504012339 16 55 0.0 0.0 0.00 0.00 0.00 48 1013.8
20260504011837 16 59 0.0 0.0 0.00 0.00 0.00 48 1013.8
20260504011333 16 53 0.0 0.0 0.00 0.00 0.00 47 1014.0
20260504010829 17 69 0.0 0.0 0.00 0.00 0.00 45 1014.1
20260504010325 17 70 0.0 0.0 0.00 0.00 0.00 44 1014.1
20260504005821 17 51 0.0 0.0 0.00 0.00 0.00 43 1014.0
20260504005319 18 51 0.0 0.0 0.00 0.00 0.00 42 1013.8
20260504004816 18 44 1.6 1.6 0.00 0.00 0.00 41 1014.0
20260504004314 18 52 0.0 0.0 0.00 0.00 0.00 41 1014.0
20260504003810 18 104 1.6 1.6 0.00 0.00 0.00 40 1014.0
20260504003307 18 52 0.0 0.0 0.00 0.00 0.00 40 1014.1
20260504002803 19 67 0.0 1.6 0.00 0.00 0.00 38 1013.9
20260504002300 19 43 0.0 1.6 0.00 0.00 0.00 38 1014.1
20260504001758 20 354 3.2 3.2 0.00 0.00 0.00 37 1014.2
20260504001255 20 20 3.2 4.8 0.00 0.00 0.00 37 1014.1
20260504000752 20 59 0.0 0.0 0.00 0.00 0.00 37 1014.2
20260504000248 20 49 0.0 1.6 0.00 0.00 0.00 37 1014.3
20260503235747 20 9 1.6 3.2 0.00 0.00 0.00 35 1014.4
20260503235243 20 9 3.2 3.2 0.00 0.00 0.00 34 1014.3
20260503234741 20 39 1.6 3.2 0.00 0.00 0.00 34 1014.4
20260503234239 20 340 1.6 3.2 0.00 0.00 0.00 34 1014.5
20260503233730 21 343 3.2 3.2 0.00 0.00 0.00 34 1014.5
20260503233226 21 328 3.2 4.8 0.00 0.00 0.00 33 1014.6
20260503232723 21 358 1.6 3.2 0.00 0.00 0.00 33 1014.6
20260503232220 21 43 3.2 3.2 0.00 0.00 0.00 33 1014.6
20260503231719 21 297 3.2 4.8 0.00 0.00 0.00 32 1014.8
20260503231215 21 300 9.7 11.3 0.00 0.00 0.00 31 1014.8
20260503230711 21 12 3.2 4.8 0.00 0.00 0.00 33 1014.9
20260503230209 21 353 4.8 6.4 0.00 0.00 0.00 32 1015.1
20260503225706 21 172 4.8 9.7 0.00 0.00 0.00 33 1015.0
20260503225205 21 327 3.2 3.2 0.00 0.00 0.00 34 1015.3
20260503224703 21 320 4.8 9.7 0.00 0.00 0.00 33 1015.1
20260503224200 21 234 4.8 6.4 0.00 0.00 0.00 33 1015.3
20260503223658 21 296 3.2 6.4 0.00 0.00 0.00 34 1015.0
20260503223155 21 242 4.8 4.8 0.00 0.00 0.00 33 1015.2
20260503222652 21 55 4.8 6.4 0.00 0.00 0.00 33 1015.0
20260503222149 21 152 8.0 12.9 0.00 0.00 0.00 33 1015.1
20260503221648 21 155 3.2 4.8 0.00 0.00 0.00 33 1015.2
20260503221145 21 354 3.2 3.2 0.00 0.00 0.00 34 1015.1
20260503220642 22 324 3.2 4.8 0.00 0.00 0.00 35 1015.2
20260503220138 21 84 1.6 1.6 0.00 0.00 0.00 34 1015.3
20260503215635 21 241 9.7 11.3 0.00 0.00 0.00 33 1015.5
20260503215131 22 296 8.0 14.5 0.00 0.00 0.00 33 1015.5
20260503214631 22 286 6.4 6.4 0.00 0.00 0.00 32 1015.7
20260503214126 22 347 8.0 11.3 0.00 0.00 0.00 31 1015.8
20260503213626 21 350 6.4 6.4 0.00 0.00 0.00 33 1015.8
20260503213122 22 177 6.4 6.4 0.00 0.00 0.00 33 1015.8
20260503212619 22 276 11.3 16.1 0.00 0.00 0.00 32 1016.3
20260503212117 22 249 6.4 9.7 0.00 0.00 0.00 33 1016.0
20260503211614 22 182 1.6 3.2 0.00 0.00 0.00 35 1016.3
20260503211109 22 18 4.8 6.4 0.00 0.00 0.00 32 1016.5
20260503210606 22 232 3.2 6.4 0.00 0.00 0.00 34 1016.5
20260503205559 22 317 6.4 9.7 0.00 0.00 0.00 33 1016.7
20260503205055 22 237 3.2 4.8 0.00 0.00 0.00 34 1016.6
20260503204552 22 319 3.2 3.2 0.00 0.00 0.00 34 1017.0
20260503204049 22 292 11.3 16.1 0.00 0.00 0.00 32 1017.1
20260503203546 22 272 8.0 9.7 0.00 0.00 0.00 33 1017.0
20260503203043 22 260 3.2 11.3 0.00 0.00 0.00 35 1017.2
20260503202541 22 64 1.6 3.2 0.00 0.00 0.00 32 1017.4
20260503202039 21 249 3.2 3.2 0.00 0.00 0.00 39 1017.4
20260503201537 21 213 8.0 9.7 0.00 0.00 0.00 33 1017.6
20260503201034 21 345 3.2 4.8 0.00 0.00 0.00 35 1017.6
20260503200530 22 317 8.0 12.9 0.00 0.00 0.00 32 1017.8
20260503200027 21 1 3.2 3.2 0.00 0.00 0.00 35 1018.2
20260503195524 21 194 6.4 12.9 0.00 0.00 0.00 34 1018.1
20260503195021 21 228 12.9 12.9 0.00 0.00 0.00 32 1018.3
20260503194518 21 261 8.0 11.3 0.00 0.00 0.00 33 1018.3
20260503194017 21 272 8.0 11.3 0.00 0.00 0.00 38 1018.7
20260503193514 21 309 6.4 6.4 0.00 0.00 0.00 33 1018.7
20260503193010 21 218 4.8 4.8 0.00 0.00 0.00 36 1018.7
20260503192506 21 265 9.7 12.9 0.00 0.00 0.00 35 1018.8
20260503192001 21 249 4.8 4.8 0.00 0.00 0.00 39 1019.0
20260503191459 21 357 1.6 3.2 0.00 0.00 0.00 40 1019.1
20260503190955 20 208 9.7 11.3 0.00 0.00 0.00 37 1019.1
20260503190453 20 308 8.0 11.3 0.00 0.00 0.00 36 1019.1
20260503185950 20 43 1.6 1.6 0.00 0.00 0.00 36 1019.1
20260503185446 20 278 9.7 11.3 0.00 0.00 0.00 35 1019.5
20260503184946 20 280 4.8 4.8 0.00 0.00 0.00 35 1019.3
20260503184442 20 355 3.2 3.2 0.00 0.00 0.00 35 1019.5
20260503183939 20 306 8.0 9.7 0.00 0.00 0.00 35 1019.4
20260503183435 20 247 4.8 6.4 0.00 0.00 0.00 37 1019.6
20260503182932 20 291 1.6 3.2 0.00 0.00 0.00 40 1019.7
20260503182431 20 198 3.2 4.8 0.00 0.00 0.00 38 1019.7
20260503181928 20 296 6.4 11.3 0.00 0.00 0.00 34 1019.7
20260503181425 20 73 4.8 6.4 0.00 0.00 0.00 37 1019.8
20260503180921 19 281 4.8 4.8 0.00 0.00 0.00 36 1019.8
20260503180420 20 302 9.7 16.1 0.00 0.00 0.00 38 1020.0
20260503175917 19 237 4.8 4.8 0.00 0.00 0.00 40 1020.1
20260503175415 19 232 11.3 16.1 0.00 0.00 0.00 38 1020.3
20260503174910 20 224 6.4 9.7 0.00 0.00 0.00 37 1020.2
20260503174409 19 347 6.4 11.3 0.00 0.00 0.00 39 1020.3
20260503173908 19 215 3.2 3.2 0.00 0.00 0.00 43 1020.4
20260503173405 19 197 4.8 4.8 0.00 0.00 0.00 42 1020.4
20260503172902 19 30 1.6 3.2 0.00 0.00 0.00 38 1020.4
20260503172359 19 311 4.8 4.8 0.00 0.00 0.00 41 1020.6
20260503171855 19 71 3.2 3.2 0.00 0.00 0.00 38 1020.6
20260503171352 18 49 1.6 3.2 0.00 0.00 0.00 39 1020.8
20260503170850 18 242 8.0 9.7 0.00 0.00 0.00 41 1020.8
20260503170346 18 216 4.8 4.8 0.00 0.00 0.00 40 1020.9
20260503150738 16 63 3.2 3.2 0.00 0.00 0.00 47 1021.9
20260503150234 16 85 6.4 6.4 0.00 0.00 0.00 49 1021.7
20260503140159 13 49 3.2 3.2 0.00 0.00 0.00 64 1021.9
20260503131128 10 37 1.6 3.2 0.00 0.00 0.00 81 1021.9
20260503130626 9 70 1.6 1.6 0.00 0.00 0.00 89 1022.0
20260503130123 8 63 0.0 0.0 0.00 0.00 0.00 97 1021.8
20260503110516 3 51 0.0 0.0 0.00 0.00 0.00 99 1021.1
20260503090408 3 51 0.0 0.0 0.00 0.00 0.00 99 1020.6
20260503081335 3 51 0.0 0.0 0.00 0.00 0.00 98 1020.6
20260503080831 3 51 0.0 0.0 0.00 0.00 0.00 98 1020.7
20260503080329 3 51 0.0 0.0 0.00 0.00 0.00 98 1020.5
20260503072805 3 51 0.0 0.0 0.00 0.00 0.00 98 1020.3
20260503072305 4 51 0.0 0.0 0.00 0.00 0.00 97 1020.3
20260503071758 4 51 0.0 0.0 0.00 0.00 0.00 98 1020.5
20260503071255 4 51 0.0 0.0 0.00 0.00 0.00 97 1020.4
20260503070751 4 51 0.0 0.0 0.00 0.00 0.00 97 1020.4
20260503070250 4 51 0.0 0.0 0.00 0.00 0.00 97 1020.4
20260503060214 5 51 0.0 0.0 0.00 0.00 0.00 96 1020.5
20260503054701 5 51 0.0 0.0 0.00 0.00 0.00 96 1020.4
20260503054159 5 51 0.0 0.0 0.00 0.00 0.00 95 1020.6
20260503053656 5 51 0.0 0.0 0.00 0.00 0.00 95 1020.6
20260503053155 5 51 0.0 0.0 0.00 0.00 0.00 95 1020.6
20260503052651 5 51 0.0 0.0 0.00 0.00 0.00 94 1020.6
20260503052147 5 51 0.0 0.0 0.00 0.00 0.00 94 1020.5
20260503051643 5 51 0.0 0.0 0.00 0.00 0.00 93 1020.4
20260503051141 5 51 0.0 0.0 0.00 0.00 0.00 93 1020.6
20260503050637 5 51 0.0 0.0 0.00 0.00 0.00 93 1020.5
20260503050134 6 51 0.0 0.0 0.00 0.00 0.00 93 1020.5
20260503045631 6 51 0.0 0.0 0.00 0.00 0.00 92 1020.6
20260503045128 6 51 0.0 0.0 0.00 0.00 0.00 92 1020.7
20260503044625 6 51 0.0 0.0 0.00 0.00 0.00 92 1020.3
20260503044123 6 51 0.0 0.0 0.00 0.00 0.00 92 1020.5
20260503043619 6 51 0.0 0.0 0.00 0.00 0.00 92 1020.4
20260503043116 6 51 0.0 0.0 0.00 0.00 0.00 91 1020.5
20260503042613 6 51 0.0 0.0 0.00 0.00 0.00 91 1020.4
20260503042108 6 51 0.0 0.0 0.00 0.00 0.00 90 1020.3
20260503041605 6 51 0.0 0.0 0.00 0.00 0.00 89 1020.5
20260503041103 6 51 0.0 0.0 0.00 0.00 0.00 89 1020.3
20260503040600 7 51 0.0 0.0 0.00 0.00 0.00 89 1020.3